Home   Weather   Vieux Fort   Past weeks

Flag for Saint Lucia Past Weather in Vieux Fort, Saint Lucia — Yesterday and Last 2 Weeks

Now
88 °F

Broken clouds.


Feels Like: 100 °F
Forecast: 81 / 88 °F
Wind: 17 mph from East

Location: Hewanorra International Airport

Current Time: Sep 30, 2016 at 11:22:43 AM

Latest Report: Sep 30, 2016 at 10:00 AM


Visibility: N/A

Pressure: 29.92 "Hg

Humidity: 70%

Dew Point: 77 °F

Location of Vieux FortLocation

Past Weather in Vieux Fort — Graph

°F

Vieux Fort Temperature Yesterday

Maximum temperature yesterday: 84 °F (at 10:00 AM)
Minimum temperature yesterday: 72 °F (at 12:00 AM)
Average temperature yesterday: 82 °F

High & Low Weather Summary for the Past Weeks

 TemperatureHumidityPressure
High91 °F (Sep 23, 12:00 PM)100% (Sep 18, 5:00 AM)30.04 "Hg (Sep 18, 5:00 AM)
Low72 °F (Sep 28, 7:00 PM)62% (Sep 26, 5:00 PM)29.71 "Hg (Sep 28, 3:00 PM)
Average83 °F80%29.92 "Hg
* Reported Sep 15 10:00 AM — Sep 30 10:00 AM, Vieux Fort, Weather by CustomWeather, © 2016

Note: Actual official high and low records may vary slightly from our data, if they occured in-between our weather recording intervals... More about our weather records

Advertising

Vieux Fort Weather History for the Previous 24 Hours

Scroll right to see more
 ConditionsComfort  
Time TempWeatherWind HumidityBarometerVisibility
10:00 AM
Fri, Sep 30
88 °FBroken clouds.17 mph70%29.92 "HgN/A
9:00 AM86 °FScattered clouds.15 mph70%29.89 "HgN/A
8:00 AM84 °FPassing clouds.16 mph74%29.89 "HgN/A
7:00 AM82 °FPassing clouds.14 mph74%29.89 "HgN/A
6:00 AM82 °FPassing clouds.14 mph74%29.86 "HgN/A
5:00 AM79 °FPassing clouds.13 mph84%29.86 "HgN/A
4:00 AM81 °FPassing clouds.8 mph79%29.86 "HgN/A
3:00 AM79 °FScattered showers. Passing clouds.8 mph89%29.86 "HgN/A
2:00 AM82 °FPassing clouds.9 mph79%29.89 "HgN/A
1:00 AM82 °FPassing clouds.15 mph74%29.89 "HgN/A
12:00 AM82 °FPassing clouds.14 mph79%29.89 "HgN/A
11:00 PM
Thu, Sep 29
84 °FPassing clouds.16 mph74%29.92 "HgN/A
10:00 PM84 °FPassing clouds.18 mph74%29.92 "HgN/A
9:00 PM84 °FPassing clouds.21 mph74%29.92 "HgN/A
8:00 PM84 °FPartly cloudy.16 mph74%29.92 "HgN/A
7:00 PM84 °FOvercast.16 mph74%29.89 "HgN/A
6:00 PM84 °FOvercast.17 mph74%29.89 "HgN/A
5:00 PM84 °FOvercast.18 mph74%29.89 "HgN/A
4:00 PM84 °FPassing clouds.23 mph79%29.89 "HgN/A
3:00 PM84 °FMore clouds than sun.23 mph79%29.89 "HgN/A
2:00 PM84 °FPartly sunny.25 mph79%29.89 "HgN/A
1:00 PM84 °FOvercast.24 mph74%29.92 "HgN/A
12:00 PM84 °FOvercast.25 mph74%29.92 "HgN/A
11:00 AM84 °FOvercast.29 mph79%29.95 "HgN/A
Weather by CustomWeather, © 2016

See weather overviewHow to use our weather pages